C/2016 M1 ( PanSTARRS )

Japanese version
Home page
Updated on April 25, 2020

---------------------------------------------------------------------

* Profile

Discovery Date June 22, 2016
Magnitude 19.7 mag
Discoverer Pan-STARRS 1 telescope (Haleakala)

* Pictures

* Orbital Elements

Epoch 2018 Aug. 30.0 TT = JDT 2458360.5
T 2018 Aug. 10.17291 TT                                 Rudenko
q   2.2104969            (2000.0)            P               Q
z  +0.0004081      Peri.  209.82581     +0.02468650     -0.03424831
 +/-0.0000001      Node    92.20359     -0.59786097     +0.80048760
e   0.9990979      Incl.   90.99966     -0.80121960     -0.59836999
From 3282 observations 2016 June 22-2020 Mar. 11, mean residual 0".5.

* Finding Charts

* Magnitudes Graph

        m1 = 7.0 + 5 log d +  7.5 log r  [    ,-310]  (             - 2017 Oct.  4)
        m1 = 2.5 + 5 log d + 15.0 log r  [-310,   0]  (2017 Oct.  4 - 2018 Aug. 10)
        m1 = 4.2 + 5 log d + 10.0 log r  [   0,    ]  (2018 Aug. 10 -             )

---------------------------------------------------------------------

The orbital elements are published on M.P.E.C. 2020-G65.
The charts are made with StellaNavigator Ver.10 (AstroArts).
The magnitudes graphs are made with Comet for Windows.

---------------------------------------------------------------------

Copyright(C) Seiichi Yoshida (comet@aerith.net). All rights reserved.